Regional Weather Roundup
Issued by NWS New Orleans/Baton Rouge, LA

Home | Current Version | Previous Version | Text Only | Print | Product List | Glossary Off
Versions: 1 2 3 4 5 6 7 8 9 10 11 12 13 14 15 16 17 18 19 20 21 22 23 24 25 26 27 28 29 30 31 32 33 34 35 36 37 38 39 40 41 42 43 44 45 46 47 48 49 50

800
ASUS44 KLIX 280510
RWRLIX
NEW ORLEANS REGIONAL WEATHER ROUNDUP
NATIONAL WEATHER SERVICE NEW ORLEANS LA
1100 PM CST SAT DEC 27 2014

NOTE: "FAIR" INDICATES FEW OR NO CLOUDS BELOW 12,000 FEET WITH NO
      SIGNIFICANT WEATHER AND/OR OBSTRUCTIONS TO VISIBILITY.
      SKY/WX - SKY CONDITION AND SIGNIFICANT WEATHER.
      TMP - AIR TEMPERATURE.     DP    - DEWPOINT TEMPERATURE.
      RH  - RELATIVE HUMIDITY.   PRES  - PRESSURE.
      HI  - HEAT INDEX.          WCI   - WIND CHILL INDEX.

*  THESE STATIONS ARE NOT NWS OR FAA STATIONS AND ARE NOT UNDER
   NWS QUALITY CONTROL.

LAZ038-040-048-061>063-065>067-069-280600-
SOUTHEAST LOUISIANA

CITY           SKY/WX    TMP DP  RH WIND       PRES   REMARKS
N.O. AUDUBON     N/A     69  69 100 MISG        N/A
N.O. INTL ARPT MOCLDY    69  67  93 S7        30.08F FOG
N.O. LAKEFRONT MOCLDY    71  68  90 S9        30.08F FOG
N.O. DOWNTOWN* CLOUDY    70  66  88 S7        30.09F
SLIDELL        CLOUDY    68  67  96 S7        30.07F FOG
BATON ROUGE    CLOUDY    72  69  90 SW12      30.05F
BOOTHVILLE     FOG       69  69 100 SE3       30.10F VSB 3/4
BELLE CHASSE   FOG       69  68  96 S5        30.08F VSB 1/2
BOGALUSA*        N/A     71  67  88 S7        30.08F FOG
GALLIANO*      FOG       63  62  99 MISG      30.09F VSB<1/4
NEW ROADS*     CLOUDY    71  70  97 S6        30.04F
GONZALES*      RAIN      70  70 100 S5        30.06S
HAMMOND*       NOT AVBL
HOUMA*         CLOUDY    70  69  98 S6        30.07F FOG
PORT FOURCHON* MOCLDY    70  68  94 SW6       30.11F FOG

$$

MSZ070-080>082-280600-
SOUTHERN MISSISSIPPI

CITY           SKY/WX    TMP DP  RH WIND       PRES   REMARKS
MCCOMB         TSTM      70  68  93 SW5       30.05S FOG
GULFPORT       FOG       64  63  96 SE5       30.09F VSB 3/4
BILOXI         LGT RAIN  66  66 100 SE6       30.10S FOG
PASCAGOULA     CLOUDY    66  65  96 SE7       30.10F FOG

$$

COASTAL OBSERVATIONS
LAKE AND NEARSHORE STATIONS

STATION/POSITION TIME  TEMP    WIND        PRES    WAVE
                       AIR SEA DIR/SP/G            HT/PER
                 (UTC) (F)     (DEG/KT/KT) (MB)    (FT/S)
PASCAGOULA       0500   64                   N/A
WAVELAND YACHT   0500   68                   N/A
GRAND ISLE       0500   67                   N/A
SOUTHWEST PASS   0500   70                   N/A
NEW CANAL        0500   69                   N/A
SHELL BEACH      0500   68                   N/A

OFFSHORE STATIONS

STATION/POSITION TIME  TEMP    WIND        PRES    WAVE
                       AIR SEA DIR/SP/G            HT/PER
                 (UTC) (F)     (DEG/KT/KT) (MB)    (FT/S)
64 S DAUPHIN ISL 0500   74 74  170/ 16/ 19 1018.8    4/ 7

$$




USA.gov is the U.S. government's official web portal to all federal, state and local government web resources and services.